Wind_Speed
16 16 16 16 16 16 17 17 17 18 19 20 21 22 24 26 27 29 30 31 32 33 34 35 35 36 37 38 39 40 41 42 42 43 44 44 45 45 45 45 46 46 46
18 18 20 20 20 20 21 22 22 23 24 25 26 27 29 31 33 35 36 38 39 40 41 42 43 43 44 45 46 46 47 48 49 49 49 49 50 50 50 50 50 49 50
21 22 23 24 25 25 26 27 27 28 29 30 31 32 34 36 38 40 41 43 44 45 47 48 49 50 50 51 52 53 53 54 55 55 55 55 55 55 54 54 53 53 53
25 26 27 28 29 29 30 32 33 33 34 34 35 37 38 39 42 44 45 47 48 50 51 53 54 55 56 56 57 57 58 58 58 59 59 59 59 58 58 58 57 56 56
30 31 32 31 32 32 33 35 37 38 38 38 39 40 42 43 45 47 48 50 52 53 55 56 57 58 58 59 59 60 60 59 60 60 60 60 60 60 60 60 59 58 57
34 35 36 36 35 34 34 35 37 39 40 41 42 43 45 47 49 50 51 52 54 55 57 58 59 59 59 59 60 61 61 61 61 60 60 61 61 62 61 60 59 59 58
36 38 38 39 37 35 35 35 36 38 41 42 43 44 46 48 50 51 53 54 56 57 58 59 60 60 61 61 61 61 61 60 60 61 61 62 61 61 61 61 60 59 59
39 40 40 39 37 36 35 35 36 37 40 42 43 44 46 48 51 53 55 57 59 60 61 61 62 62 62 61 61 61 61 61 62 62 63 63 62 61 60 60 59 59 58
40 41 40 39 39 39 38 38 38 39 41 43 45 47 48 50 52 55 58 60 61 62 62 62 62 62 62 62 62 62 63 64 65 65 64 63 61 60 59 59 59 58 58
41 40 40 41 41 41 42 41 41 42 44 46 49 51 53 54 55 56 58 60 61 61 61 61 61 62 63 64 65 66 67 67 67 66 65 62 61 59 59 59 59 58 57
42 43 43 44 45 45 45 45 45 46 47 50 52 55 57 59 60 60 59 59 60 60 61 62 64 65 67 68 68 69 69 68 68 66 64 61 60 59 58 57 57 57 55
45 45 46 47 47 48 48 48 48 50 51 54 56 59 61 62 63 63 62 61 61 62 64 66 68 70 70 70 71 71 70 69 67 65 62 60 59 58 57 57 56 56 55
46 47 48 49 49 50 50 50 51 53 55 57 60 62 63 64 64 64 63 63 64 65 67 69 71 72 72 73 73 73 72 70 68 66 64 62 60 59 58 57 56 56 55
48 49 50 50 51 52 52 53 54 57 58 61 63 64 65 66 66 67 68 68 68 67 68 69 71 73 74 74 74 73 73 71 69 68 67 65 62 60 59 59 58 57 56
52 52 51 52 52 53 54 56 58 60 62 64 65 66 66 67 68 70 70 69 69 68 67 69 72 72 73 73 72 71 70 69 68 67 66 65 63 61 61 61 60 59 58
54 55 55 56 56 57 58 61 62 63 64 65 67 67 68 68 69 69 68 69 69 70 70 70 72 73 72 69 66 64 62 61 60 60 60 60 60 59 59 60 61 61 60
58 59 59 60 61 62 62 63 63 63 63 64 66 66 67 66 66 67 67 69 70 72 72 70 70 68 65 61 56 54 52 50 48 48 48 49 50 52 54 56 59 60 61
62 63 63 64 64 64 64 63 62 62 63 63 63 63 63 64 64 65 66 68 69 70 69 66 61 57 54 50 47 45 43 40 39 38 39 40 42 44 47 50 53 56 59
65 65 65 64 63 63 62 62 62 62 61 61 61 61 60 61 62 63 65 66 65 64 62 57 51 47 43 41 38 35 33 32 31 31 32 33 35 37 39 42 45 48 53
64 63 62 61 61 61 61 60 60 60 61 61 59 58 58 59 61 62 61 60 58 54 50 47 41 37 34 33 30 28 28 28 27 28 28 28 29 30 32 34 37 41 45
60 59 59 59 59 59 59 59 60 59 56 55 55 55 56 58 58 57 54 51 47 43 39 36 32 28 26 25 24 24 23 24 24 25 24 25 25 25 27 29 32 35 38
57 57 58 57 57 58 58 57 55 53 52 52 53 54 54 53 51 48 44 41 37 34 29 25 22 20 19 19 19 19 19 18 18 21 20 20 20 20 22 24 27 30 33
54 55 55 56 56 55 54 52 50 50 51 51 51 50 48 45 41 38 34 31 29 25 21 17 16 15 15 16 16 16 16 16 16 17 17 16 16 15 17 20 22 25 27
52 53 53 53 52 50 48 48 48 49 49 48 46 43 40 35 32 28 25 23 21 18 16 14 14 14 14 14 14 14 13 13 14 14 13 13 13 12 13 14 17 19 22
50 50 49 47 46 45 45 46 46 45 44 41 38 35 31 27 24 21 19 17 14 13 12 12 13 13 14 14 14 14 14 14 13 13 12 11 10 10 10 11 13 15 17
44 43 42 43 43 43 43 42 40 38 35 32 30 28 25 21 17 15 13 11 10 11 12 12 13 14 14 15 16 16 15 14 13 12 11 11 10 10 10 9 10 11 13
Wind_Direction
321 316 309 304 300 297 292 285 279 275 273 273 273 274 275 277 278 280 281 281 281 280 280 279 279 279 279 279 279 278 277 277 277 276 276 275 274 274 273 273 273 273 273
317 315 310 305 299 292 286 283 279 276 275 274 274 276 278 280 281 282 282 282 283 283 282 282 281 280 280 279 278 277 277 277 276 276 275 275 274 274 273 272 272 271 271
311 308 305 305 299 292 286 283 282 280 279 278 279 280 282 283 283 283 284 284 284 284 284 283 282 281 281 280 279 278 278 277 276 276 276 275 275 274 273 272 271 270 269
307 306 305 304 304 299 292 286 285 284 283 283 283 284 284 285 285 284 284 284 284 284 284 284 283 282 282 281 281 280 279 279 278 277 277 277 276 274 273 271 270 269 268
302 303 303 302 303 301 295 290 284 283 283 284 285 285 286 287 286 286 287 287 287 286 285 285 284 284 283 282 282 281 281 281 280 279 278 277 276 275 273 271 270 268 266
297 298 299 299 299 297 294 291 285 282 282 283 285 287 288 288 289 289 290 289 289 288 287 286 285 284 284 283 283 282 282 282 282 281 279 278 276 275 273 271 269 267 265
292 293 294 294 294 296 295 293 287 283 282 283 285 287 289 290 291 292 291 290 289 288 287 286 285 285 284 283 283 283 282 281 281 280 280 279 277 275 272 269 267 265 264
288 290 291 293 293 295 292 291 289 286 285 286 288 289 290 291 292 292 291 290 289 288 287 285 285 284 284 283 283 282 281 281 281 280 280 279 277 274 270 267 265 263 260
290 292 296 297 296 294 292 290 289 288 289 289 289 290 291 291 291 291 291 290 289 288 288 286 285 284 284 283 282 281 281 281 281 281 280 278 275 271 267 264 262 259 257
293 297 299 298 295 293 292 291 290 290 290 290 291 291 292 293 292 291 291 291 291 291 289 288 287 286 285 284 284 283 283 283 282 281 279 276 272 268 264 262 259 257 255
298 297 296 295 294 293 292 292 291 291 291 291 292 293 294 294 293 292 291 292 292 292 291 289 288 287 286 285 285 284 283 283 282 280 278 274 271 267 264 261 258 256 253
295 294 294 293 292 293 292 292 290 291 292 292 292 293 294 294 294 294 293 292 292 292 291 290 288 287 286 286 285 284 283 282 280 278 275 272 269 266 263 261 258 255 251
294 293 293 293 293 293 291 290 291 291 292 292 292 293 293 294 294 294 294 293 293 292 290 289 288 287 286 286 285 284 282 280 278 275 273 270 267 264 261 259 256 253 250
293 293 293 293 293 293 292 291 292 292 292 292 293 293 294 294 294 294 295 295 294 292 290 289 288 287 287 286 285 283 281 279 276 274 271 268 265 261 258 255 253 251 249
292 293 293 294 294 294 294 294 294 294 294 294 295 294 294 296 296 297 296 295 293 291 289 288 287 287 287 286 284 282 280 277 275 272 269 267 263 259 255 253 250 248 246
291 292 293 294 295 295 295 295 296 296 296 297 297 297 297 297 298 297 295 293 293 292 290 290 289 289 288 287 285 283 280 277 274 271 268 264 260 257 253 250 248 246 244
291 292 293 294 296 296 296 296 297 297 299 300 300 299 298 298 297 296 294 294 294 294 294 293 293 292 290 289 286 284 282 278 274 271 267 263 259 255 251 248 245 243 242
291 293 294 295 296 296 296 297 297 298 300 301 301 301 299 298 296 296 296 296 296 297 297 297 296 294 292 289 286 285 283 279 275 270 267 264 261 257 252 248 245 242 240
290 291 293 294 295 296 297 298 299 301 302 302 301 300 299 297 297 298 298 299 299 300 300 300 298 295 292 289 288 286 283 280 277 273 269 266 263 258 254 249 245 242 239
290 291 293 294 295 297 299 301 302 302 302 302 301 299 299 299 299 300 301 302 302 303 302 302 300 296 292 290 289 287 285 283 279 275 271 268 264 259 255 251 246 242 240
290 292 294 295 298 300 301 302 303 302 302 300 300 300 300 301 302 303 304 305 306 306 306 304 302 298 293 291 292 291 289 285 282 279 274 270 266 261 256 251 246 243 240
292 294 296 298 300 301 302 302 302 300 300 300 301 301 302 304 305 306 308 309 311 312 312 310 307 304 300 299 299 298 296 292 287 285 285 280 273 263 257 251 246 242 239
295 295 297 299 300 301 301 300 300 300 301 301 301 302 304 306 308 309 312 314 316 318 318 318 317 314 312 310 308 305 302 299 293 289 288 283 276 266 258 251 246 242 239
296 297 299 299 299 299 299 300 300 301 301 301 302 304 307 309 311 313 316 319 321 324 327 329 328 326 325 322 319 314 311 307 301 298 294 286 277 268 260 251 245 241 238
297 298 299 299 299 300 301 301 301 301 302 303 305 308 311 314 316 318 322 325 328 334 339 340 338 335 331 327 322 317 312 308 303 297 293 286 277 268 259 251 245 241 237
298 299 300 301 301 301 301 302 302 303 304 306 309 312 316 319 323 327 333 338 343 347 348 347 344 339 334 329 325 321 318 313 306 295 286 279 273 266 258 252 246 240 235
Height
5869 5868 5867 5866 5864 5863 5861 5860 5859 5857 5856 5854 5853 5851 5849 5847 5845 5843 5841 5840 5839 5837 5836 5834 5833 5832 5830 5829 5828 5826 5825 5824 5823 5823 5822 5821 5821 5821 5821 5821 5822 5822 5823
5867 5865 5863 5863 5861 5860 5858 5857 5855 5854 5852 5851 5849 5847 5844 5841 5839 5837 5835 5833 5831 5829 5828 5826 5824 5823 5821 5819 5818 5816 5815 5814 5812 5812 5811 5810 5810 5810 5810 5810 5811 5811 5812
5862 5860 5858 5857 5856 5855 5853 5852 5850 5848 5847 5845 5843 5841 5838 5836 5833 5829 5827 5825 5823 5821 5819 5816 5814 5812 5810 5808 5807 5805 5803 5802 5800 5799 5798 5797 5797 5797 5797 5797 5798 5799 5800
5855 5853 5851 5850 5848 5846 5845 5844 5842 5841 5839 5837 5835 5833 5831 5828 5825 5822 5819 5816 5813 5811 5808 5805 5802 5800 5798 5795 5793 5791 5790 5788 5786 5785 5784 5783 5782 5782 5782 5783 5783 5784 5786
5848 5846 5844 5843 5841 5839 5837 5836 5834 5832 5830 5828 5826 5824 5821 5818 5815 5812 5809 5805 5802 5799 5795 5792 5789 5786 5784 5781 5779 5777 5775 5773 5771 5770 5768 5767 5766 5765 5765 5766 5767 5768 5770
5840 5838 5837 5835 5833 5831 5829 5827 5824 5822 5820 5819 5817 5815 5812 5808 5804 5800 5797 5793 5789 5786 5782 5778 5775 5772 5769 5766 5764 5761 5759 5757 5755 5754 5752 5751 5750 5749 5749 5749 5750 5751 5753
5831 5830 5828 5826 5825 5822 5820 5818 5815 5813 5811 5809 5807 5805 5802 5797 5793 5789 5784 5780 5776 5772 5768 5764 5760 5757 5754 5751 5748 5746 5743 5741 5739 5737 5735 5734 5733 5732 5731 5732 5733 5734 5736
5822 5821 5819 5817 5815 5813 5811 5808 5806 5803 5800 5798 5797 5794 5791 5788 5782 5777 5772 5767 5763 5758 5754 5749 5745 5742 5738 5735 5733 5730 5727 5725 5723 5721 5719 5717 5715 5714 5714 5714 5715 5717 5718
5814 5813 5810 5808 5806 5804 5801 5798 5796 5793 5790 5787 5785 5782 5779 5776 5772 5766 5759 5754 5749 5744 5739 5734 5729 5725 5721 5718 5716 5713 5710 5708 5705 5703 5701 5699 5697 5696 5695 5696 5698 5699 5701
5805 5803 5801 5799 5796 5794 5791 5788 5785 5783 5780 5776 5772 5769 5765 5762 5757 5753 5747 5739 5733 5728 5723 5718 5713 5708 5704 5700 5697 5694 5691 5688 5686 5684 5682 5680 5678 5677 5677 5678 5680 5682 5684
5798 5795 5792 5789 5786 5783 5780 5777 5774 5772 5768 5764 5759 5755 5750 5745 5741 5737 5733 5726 5719 5712 5706 5701 5696 5690 5685 5681 5677 5673 5670 5668 5665 5663 5662 5660 5659 5659 5660 5661 5663 5666 5668
5790 5787 5783 5780 5776 5773 5770 5766 5763 5759 5755 5751 5746 5740 5735 5729 5724 5719 5715 5711 5705 5698 5690 5684 5677 5671 5665 5660 5656 5652 5649 5646 5644 5642 5641 5641 5640 5641 5642 5644 5646 5649 5653
5781 5778 5774 5770 5766 5762 5758 5754 5751 5747 5742 5737 5731 5726 5720 5714 5708 5702 5697 5693 5688 5683 5675 5666 5657 5650 5644 5638 5633 5629 5627 5624 5622 5621 5620 5620 5621 5623 5624 5626 5629 5632 5637
5771 5767 5763 5759 5755 5751 5747 5742 5738 5733 5728 5723 5717 5711 5704 5697 5691 5685 5679 5674 5669 5664 5657 5649 5638 5629 5622 5616 5611 5606 5603 5600 5600 5599 5598 5599 5600 5603 5605 5607 5611 5615 5620
5760 5756 5752 5748 5743 5739 5734 5729 5724 5718 5713 5707 5701 5694 5688 5681 5674 5667 5659 5652 5647 5644 5640 5630 5620 5610 5600 5594 5588 5583 5579 5577 5575 5575 5575 5576 5578 5581 5584 5588 5592 5596 5602
5748 5744 5739 5735 5730 5725 5719 5714 5708 5702 5697 5690 5684 5678 5671 5664 5657 5649 5641 5633 5625 5619 5617 5610 5598 5589 5580 5572 5565 5560 5557 5554 5553 5552 5552 5553 5555 5558 5562 5567 5571 5577 5583
5735 5731 5726 5721 5715 5710 5704 5698 5693 5687 5681 5674 5667 5661 5654 5647 5639 5631 5623 5614 5605 5596 5591 5587 5575 5566 5559 5552 5547 5542 5538 5536 5535 5533 5533 5533 5535 5538 5541 5546 5551 5557 5563
5722 5717 5711 5706 5700 5695 5689 5684 5678 5672 5666 5659 5652 5645 5637 5630 5622 5613 5605 5595 5586 5576 5568 5564 5556 5547 5541 5535 5531 5527 5524 5522 5521 5520 5519 5519 5520 5522 5524 5528 5532 5538 5545
5708 5703 5698 5692 5686 5680 5675 5669 5663 5657 5650 5644 5637 5629 5621 5613 5605 5596 5587 5578 5568 5559 5550 5544 5539 5532 5527 5521 5518 5516 5513 5511 5510 5509 5508 5508 5508 5509 5510 5513 5517 5522 5528
5694 5689 5684 5678 5672 5666 5660 5654 5648 5642 5636 5628 5621 5613 5605 5597 5589 5581 5572 5562 5553 5545 5537 5530 5525 5520 5516 5511 5509 5507 5505 5503 5501 5500 5499 5498 5498 5498 5500 5502 5506 5510 5515
5679 5675 5669 5664 5658 5652 5646 5640 5634 5627 5620 5613 5606 5598 5591 5582 5574 5566 5558 5549 5541 5534 5527 5520 5515 5511 5508 5504 5502 5500 5498 5496 5494 5491 5491 5490 5490 5490 5491 5492 5495 5499 5503
5665 5660 5655 5649 5644 5638 5632 5625 5619 5613 5606 5600 5592 5585 5577 5569 5562 5554 5546 5539 5532 5525 5519 5514 5509 5505 5503 5500 5497 5495 5492 5490 5488 5486 5484 5484 5482 5483 5483 5484 5486 5489 5493
5651 5646 5641 5636 5630 5624 5618 5612 5605 5599 5593 5587 5580 5573 5566 5559 5552 5546 5539 5532 5526 5520 5515 5510 5507 5503 5500 5497 5494 5491 5488 5486 5484 5481 5479 5478 5477 5477 5477 5478 5480 5482 5485
5638 5633 5628 5623 5617 5611 5605 5599 5592 5586 5580 5574 5568 5562 5556 5551 5545 5539 5533 5528 5523 5517 5513 5509 5505 5502 5498 5495 5491 5488 5485 5483 5480 5477 5475 5474 5473 5473 5473 5473 5474 5476 5478
5625 5620 5615 5610 5604 5599 5593 5587 5581 5575 5569 5563 5558 5553 5549 5544 5539 5534 5529 5525 5521 5517 5512 5509 5505 5501 5497 5493 5490 5486 5483 5480 5477 5475 5473 5471 5471 5470 5470 5470 5471 5472 5473
5613 5608 5603 5598 5593 5587 5582 5576 5570 5565 5560 5555 5551 5547 5543 5539 5535 5531 5527 5524 5520 5517 5513 5509 5505 5501 5496 5492 5488 5484 5480 5476 5474 5471 5470 5469 5468 5468 5468 5468 5469 5469 5470